Hourly Data Report for May 28, 2004

SHERBROOKE A
QUEBEC

45°26'00.000" N
71°41'00.000" W
241.40 m
7028124
71610
YSC

Download Data

Hourly Data (May 2004)
Hourly Data Report for May 28, 2004
TIME
LST
Temp Definition
°C
Dew Point Definition
°C
Rel Hum Definition
%
Precip. Amount Definition
mm

Wind Dir Definition
10's deg

Wind Spd Definition
km/h
Visibility Definition
km
Stn Press Definition
kPa
Hmdx Definition


Wind Chill Definition


Weather Definition


00:00 13.5 10.4 82     0 15.0 97.42      
01:00 12.7 10.4 86   12 4 15.0 97.36      
02:00 13.4 10.5 83   11 4 15.0 97.36      
03:00 14.5 10.8 78   15 9 15.0 97.34     Rain
04:00 13.7 11.3 85   16 7 15.0 97.25     Rain
05:00 13.8 10.8 82   12 9 15.0 97.24      
06:00 13.8 10.8 82   11 11 15.0 97.25      
07:00 13.6 11.1 85   12 13 24.1 97.20     Cloudy
08:00 14.7 11.7 82   14 9 24.1 97.16     Cloudy
09:00 15.3 12.0 81   16 11 19.3 97.07     Rain Showers
10:00 16.1 12.6 80   19 19 19.3 97.02     Rain Showers
11:00 14.2 12.8 91   15 9 4.8 97.02     Thunderstorms,Moderate Rain Showers, Fog
12:00 14.2 13.4 95   15 11 16.1 97.03     Rain Showers
13:00 15.4 13.9 91   20 17 16.1 97.07     Mostly Cloudy
14:00 16.2 14.3 89   23 13 16.1 97.08     Mostly Cloudy
15:00 15.7 13.8 88   26 15 16.1 97.09     Mostly Cloudy
16:00 14.8 13.6 93   24 19 3.2 97.15     Rain Showers, Fog
17:00 14.0 11.7 86   30 20 15.0 97.24      
18:00 12.7 9.9 83   30 19 15.0 97.35      
19:00 11.2 8.1 81   31 15 15.0 97.45      
20:00 9.6 5.7 77   30 15 15.0 97.57      
21:00 8.6 4.8 77     0 15.0 97.68      
22:00 6.6 4.4 86   25 6 15.0 97.69      
23:00 7.6 3.9 77   30 17 15.0 97.75      

Notes on Data Quality.

Legend

  • E = Estimated
  • M = Missing
  • NA = Not Available*
  • [empty] = Indicates an unobserved value
Date modified: